Lord Of The Glens — ZQOE9 — position and weather

sailwx.info

Track history (hours):
 
Tides and Currents Weather Stations Pressure Air Temp Water Temp Dewpoint Dewpoint Depression Visibility Wind Speed Wind Dir Waves Ship Positions

Lord Of The Glens

Operator: V Ships UK Ltd

Last reported at 2017-Apr-25 15:25 UTC. Time now 2017-Apr-28 02:28 UTC.
Position N 56°46' W 005°11'.

Length 45 m; draft 2.8 m.

Type: Passenger vessel. MMSI: 235000295.

Date/timePositionNaut miles runAvg speedWind from/ knotsBaromVisibWave heightAir tempDewpointWater temp
2017-Apr-25 15:25N 56°46' W 005°11'410.8
2017-Apr-25 15:01N 56°43' W 005°15'1110.9
2017-Apr-25 14:00N 56°35' W 005°29'510.7
2017-Apr-25 13:30N 56°31' W 005°36'5 9.0
2017-Apr-25 13:00N 56°28' W 005°42'0 0.0
2017-Apr-25 12:27N 56°28' W 005°42'0 0.0
2017-Apr-25 12:00N 56°28' W 005°42'1 0.2
2017-Apr-25 08:13N 56°29' W 005°42'1 3.3
2017-Apr-25 08:00N 56°28' W 005°42'3 6.5
2017-Apr-25 07:30N 56°27' W 005°37'5 0.2
2017-Apr-24 06:18N 56°25' W 005°29'0 0.0
2017-Apr-24 05:50N 56°25' W 005°29'0 0.0
2017-Apr-24 05:30N 56°25' W 005°29'0 0.0
2017-Apr-24 04:59N 56°25' W 005°29'0 0.0
2017-Apr-23 02:54N 56°25' W 005°29'0 0.0
2017-Apr-22 12:06N 56°25' W 005°29'1 9.7
2017-Apr-22 12:00N 56°26' W 005°30'7 2.5
2017-Apr-22 09:02N 56°29' W 005°42'1 6.5
2017-Apr-22 08:54N 56°30' W 005°42'4 0.2
2017-Apr-21 11:52N 56°31' W 005°36'3 8.9
2017-Apr-21 11:30N 56°33' W 005°32'5 9.1
2017-Apr-21 10:56N 56°37' W 005°25'4 9.6
2017-Apr-21 10:30N 56°40' W 005°20'5 9.4
2017-Apr-21 10:00N 56°43' W 005°14'510.0
2017-Apr-21 09:30N 56°48' W 005°09'  
2017-Apr-16 11:14N 56°47' W 005°11'2 9.9
2017-Apr-16 11:00N 56°45' W 005°13'4 8.6
2017-Apr-16 10:30N 56°41' W 005°17'4 8.9
2017-Apr-16 10:00N 56°38' W 005°22'5 9.1
2017-Apr-16 09:30N 56°34' W 005°25'5 9.7
2017-Apr-16 09:00N 56°29' W 005°29'  
Track history (hours):
 
Tides and Currents Weather Stations Pressure Air Temp Water Temp Dewpoint Dewpoint Depression Visibility Wind Speed Wind Dir Waves Ship Positions

Lord Of The Glens

Operator: V Ships UK Ltd

Last reported at 2017-Apr-25 15:25 UTC. Time now 2017-Apr-28 02:28 UTC.
Position N 56°46' W 005°11'.

Length 45 m; draft 2.8 m.

Type: Passenger vessel. MMSI: 235000295.

Date/timePositionNaut miles runAvg speedWind from/ knotsBaromVisibWave heightAir tempDewpointWater temp
2017-Apr-25 15:25N 56°46' W 005°11'410.8
2017-Apr-25 15:01N 56°43' W 005°15'1110.9
2017-Apr-25 14:00N 56°35' W 005°29'510.7
2017-Apr-25 13:30N 56°31' W 005°36'5 9.0
2017-Apr-25 13:00N 56°28' W 005°42'0 0.0
2017-Apr-25 12:27N 56°28' W 005°42'0 0.0
2017-Apr-25 12:00N 56°28' W 005°42'1 0.2
2017-Apr-25 08:13N 56°29' W 005°42'1 3.3
2017-Apr-25 08:00N 56°28' W 005°42'3 6.5
2017-Apr-25 07:30N 56°27' W 005°37'5 0.2
2017-Apr-24 06:18N 56°25' W 005°29'0 0.0
2017-Apr-24 05:50N 56°25' W 005°29'0 0.0
2017-Apr-24 05:30N 56°25' W 005°29'0 0.0
2017-Apr-24 04:59N 56°25' W 005°29'0 0.0
2017-Apr-23 02:54N 56°25' W 005°29'0 0.0
2017-Apr-22 12:06N 56°25' W 005°29'1 9.7
2017-Apr-22 12:00N 56°26' W 005°30'7 2.5
2017-Apr-22 09:02N 56°29' W 005°42'1 6.5
2017-Apr-22 08:54N 56°30' W 005°42'4 0.2
2017-Apr-21 11:52N 56°31' W 005°36'3 8.9
2017-Apr-21 11:30N 56°33' W 005°32'5 9.1
2017-Apr-21 10:56N 56°37' W 005°25'4 9.6
2017-Apr-21 10:30N 56°40' W 005°20'5 9.4
2017-Apr-21 10:00N 56°43' W 005°14'510.0
2017-Apr-21 09:30N 56°48' W 005°09'  
2017-Apr-16 11:14N 56°47' W 005°11'2 9.9
2017-Apr-16 11:00N 56°45' W 005°13'4 8.6
2017-Apr-16 10:30N 56°41' W 005°17'4 8.9
2017-Apr-16 10:00N 56°38' W 005°22'5 9.1
2017-Apr-16 09:30N 56°34' W 005°25'5 9.7
2017-Apr-16 09:00N 56°29' W 005°29'  

Dump ship's entire track history